| time (UTC) | temp F | wind direction | speed MPH | gust MPH | rain 1hr in | rain 24hr in | rain mn in | humidity % | barometer mb |
| 20260903211607 | 75 | 279 | 8.0 | 12.0 | 0.00 | 0.00 | 0.00 | 34 | 1008.5 |
| 20260903210053 | 74 | 266 | 0.0 | 7.0 | 0.00 | 0.00 | 0.00 | 34 | 1008.5 |
| 20260903204555 | 74 | 264 | 0.0 | 6.0 | 0.00 | 0.00 | 0.00 | 31 | 1008.5 |
| 20260903203051 | 74 | 272 | 0.0 | 7.0 | 0.00 | 0.00 | 0.00 | 31 | 1008.5 |
| 20260903201549 | 73 | 282 | 0.0 | 11.0 | 0.00 | 0.00 | 0.00 | 31 | 1008.5 |
| 20260903200046 | 73 | 274 | 0.0 | 7.0 | 0.00 | 0.00 | 0.00 | 33 | 1008.5 |
| 20260903194546 | 73 | 285 | 0.0 | 5.0 | 0.00 | 0.00 | 0.00 | 33 | 1008.6 |
| 20260903193044 | 73 | 265 | 0.0 | 0.0 | 0.00 | 0.00 | 0.00 | 34 | 1008.6 |
| 20260903191542 | 73 | 246 | 1.0 | 16.0 | 0.00 | 0.00 | 0.00 | 36 | 1008.6 |
| 20260903190038 | 72 | 243 | 0.0 | 1.0 | 0.00 | 0.00 | 0.00 | 38 | 1008.7 |
| 20260903184547 | 72 | 244 | 0.0 | 12.0 | 0.00 | 0.00 | 0.00 | 36 | 1008.6 |
| 20260903183035 | 71 | 274 | 6.0 | 18.0 | 0.00 | 0.00 | 0.00 | 37 | 1008.7 |
| 20260903181534 | 71 | 261 | 0.0 | 0.0 | 0.00 | 0.00 | 0.00 | 36 | 1008.6 |
| 20260903180036 | 70 | 284 | 0.0 | 0.0 | 0.00 | 0.00 | 0.00 | 37 | 1008.7 |
| 20260903174536 | 70 | 263 | 0.0 | 0.0 | 0.00 | 0.00 | 0.00 | 34 | 1008.8 |
| 20260903173036 | 70 | 283 | 0.0 | 0.0 | 0.00 | 0.00 | 0.00 | 40 | 1008.9 |
| 20260903171528 | 69 | 275 | 0.0 | 0.0 | 0.00 | 0.00 | 0.00 | 38 | 1008.8 |
| 20260903170030 | 69 | 232 | 0.0 | 0.0 | 0.00 | 0.00 | 0.00 | 38 | 1008.9 |
| 20260903164523 | 69 | 274 | 0.0 | 0.0 | 0.00 | 0.00 | 0.00 | 41 | 1008.9 |
| 20260903163023 | 67 | 243 | 0.0 | 0.0 | 0.00 | 0.00 | 0.00 | 50 | 1008.9 |
| 20260903161515 | 64 | 264 | 0.0 | 0.0 | 0.00 | 0.00 | 0.00 | 53 | 1008.8 |
| 20260903160011 | 62 | 278 | 0.0 | 0.0 | 0.00 | 0.00 | 0.00 | 55 | 1008.9 |
| 20260903154506 | 60 | 240 | 0.0 | 0.0 | 0.00 | 0.00 | 0.00 | 60 | 1009.1 |
| 20260903153001 | 58 | 276 | 0.0 | 0.0 | 0.00 | 0.00 | 0.00 | 65 | 1009.1 |
| 20260903151558 | 56 | 281 | 0.0 | 0.0 | 0.00 | 0.00 | 0.00 | 66 | 1009.1 |
| 20260903150057 | 55 | 277 | 0.0 | 0.0 | 0.00 | 0.00 | 0.00 | 68 | 1009.1 |
| 20260903144601 | 55 | 266 | 0.0 | 0.0 | 0.00 | 0.00 | 0.00 | 68 | 1009.1 |
| 20260903143105 | 55 | 271 | 0.0 | 0.0 | 0.00 | 0.00 | 0.00 | 70 | 1009.2 |
| 20260903141556 | 54 | 263 | 0.0 | 0.0 | 0.00 | 0.00 | 0.00 | 72 | 1009.2 |
| 20260903140053 | 53 | 276 | 0.0 | 0.0 | 0.00 | 0.00 | 0.00 | 73 | 1009.1 |
| 20260903134556 | 52 | 274 | 0.0 | 0.0 | 0.00 | 0.00 | 0.00 | 76 | 1008.9 |
| 20260903133104 | 52 | 280 | 0.0 | 0.0 | 0.00 | 0.00 | 0.00 | 75 | 1008.6 |
| 20260903131547 | 52 | 266 | 2.0 | 8.0 | 0.00 | 0.00 | 0.00 | 74 | 1008.4 |
| 20260903130059 | 50 | 270 | 0.0 | 4.0 | 0.00 | 0.00 | 0.00 | 77 | 1008.2 |
| 20260903124554 | 49 | 305 | 0.0 | 0.0 | 0.00 | 0.00 | 0.00 | 75 | 1008.4 |
| 20260903123046 | 50 | 300 | 0.0 | 0.0 | 0.00 | 0.00 | 0.00 | 73 | 1008.3 |
| 20260903121539 | 51 | 273 | 0.0 | 1.0 | 0.00 | 0.00 | 0.00 | 70 | 1008.2 |
| 20260903120035 | 52 | 288 | 2.0 | 6.0 | 0.00 | 0.00 | 0.00 | 67 | 1008.2 |
| 20260903114537 | 52 | 255 | 2.0 | 4.0 | 0.00 | 0.00 | 0.00 | 68 | 1008.1 |
| 20260903113033 | 52 | 285 | 0.0 | 2.0 | 0.00 | 0.00 | 0.00 | 67 | 1008.1 |
| 20260903111535 | 52 | 44 | 0.0 | 1.0 | 0.00 | 0.00 | 0.00 | 68 | 1008.2 |
| 20260903110031 | 51 | 343 | 0.0 | 1.0 | 0.00 | 0.00 | 0.00 | 68 | 1008.4 |
| 20260903104529 | 51 | 11 | 0.0 | 0.0 | 0.00 | 0.00 | 0.00 | 68 | 1008.3 |
| 20260903103027 | 53 | 275 | 0.0 | 0.0 | 0.00 | 0.00 | 0.00 | 67 | 1008.1 |
| 20260903101526 | 52 | 356 | 0.0 | 0.0 | 0.00 | 0.00 | 0.00 | 69 | 1008.1 |
| 20260903100025 | 51 | 19 | 0.0 | 0.0 | 0.00 | 0.00 | 0.00 | 70 | 1008.0 |
| 20260903094527 | 52 | 31 | 0.0 | 0.0 | 0.00 | 0.00 | 0.00 | 68 | 1007.8 |
| 20260903093022 | 53 | 269 | 0.0 | 0.0 | 0.00 | 0.00 | 0.00 | 68 | 1007.6 |
| 20260903091522 | 53 | 250 | 0.0 | 0.0 | 0.00 | 0.00 | 0.00 | 66 | 1007.6 |
| 20260903090020 | 54 | 240 | 0.0 | 0.0 | 0.00 | 0.00 | 0.00 | 66 | 1007.7 |
| 20260903084515 | 54 | 250 | 0.0 | 5.0 | 0.00 | 0.00 | 0.00 | 67 | 1007.4 |
| 20260903083012 | 54 | 261 | 0.0 | 1.0 | 0.00 | 0.00 | 0.00 | 64 | 1007.5 |
| 20260903081512 | 55 | 226 | 0.0 | 0.0 | 0.00 | 0.00 | 0.00 | 65 | 1007.6 |
| 20260903080010 | 55 | 247 | 0.0 | 0.0 | 0.00 | 0.00 | 0.00 | 64 | 1007.5 |
| 20260903074509 | 55 | 234 | 0.0 | 0.0 | 0.00 | 0.00 | 0.00 | 65 | 1007.7 |
| 20260903073011 | 55 | 232 | 0.0 | 0.0 | 0.00 | 0.00 | 0.00 | 64 | 1007.7 |
| 20260903071508 | 56 | 238 | 0.0 | 0.0 | 0.00 | 0.00 | 0.00 | 67 | 1007.7 |
| 20260903070007 | 54 | 249 | 1.0 | 4.0 | 0.00 | 0.00 | 0.00 | 71 | 1007.7 |
| 20260903064504 | 56 | 222 | 0.0 | 1.0 | 0.00 | 0.00 | 0.00 | 67 | 1007.7 |
| 20260903063004 | 54 | 329 | 0.0 | 0.0 | 0.00 | 0.00 | 0.00 | 68 | 1007.4 |
| 20260903061559 | 55 | 294 | 0.0 | 1.0 | 0.00 | 0.00 | 0.00 | 64 | 1007.2 |
| 20260903060122 | 57 | 285 | 0.0 | 3.0 | 0.00 | 0.00 | 0.00 | 65 | 1007.3 |
| 20260903054555 | 56 | 231 | 0.0 | 3.0 | 0.00 | 0.00 | 0.00 | 67 | 1007.2 |
| 20260903053054 | 55 | 235 | 0.0 | 6.0 | 0.00 | 0.00 | 0.00 | 69 | 1007.6 |
| 20260903051601 | 56 | 247 | 0.0 | 3.0 | 0.00 | 0.00 | 0.00 | 68 | 1007.9 |
| 20260903050050 | 58 | 266 | 0.0 | 2.0 | 0.00 | 0.00 | 0.00 | 64 | 1008.3 |
| 20260903044549 | 56 | 278 | 0.0 | 0.0 | 0.00 | 0.00 | 0.00 | 66 | 1008.7 |
| 20260903043048 | 57 | 268 | 0.0 | 0.0 | 0.00 | 0.00 | 0.00 | 65 | 1008.6 |
| 20260903041549 | 57 | 234 | 0.0 | 1.0 | 0.00 | 0.00 | 0.00 | 69 | 1008.6 |
| 20260903040059 | 58 | 262 | 0.0 | 1.0 | 0.00 | 0.00 | 0.00 | 69 | 1008.5 |
| 20260903034546 | 58 | 234 | 0.0 | 1.0 | 0.00 | 0.00 | 0.00 | 67 | 1008.3 |
| 20260903033046 | 58 | 240 | 0.0 | 3.0 | 0.00 | 0.00 | 0.00 | 70 | 1008.4 |
| 20260903031545 | 57 | 243 | 0.0 | 3.0 | 0.00 | 0.00 | 0.00 | 70 | 1008.5 |
| 20260903030044 | 57 | 22 | 0.0 | 0.0 | 0.00 | 0.00 | 0.00 | 68 | 1008.6 |
| 20260903024544 | 58 | 22 | 0.0 | 0.0 | 0.00 | 0.00 | 0.00 | 65 | 1008.1 |
| 20260903023053 | 59 | 351 | 0.0 | 0.0 | 0.00 | 0.00 | 0.00 | 62 | 1007.9 |
| 20260903021543 | 60 | 345 | 0.0 | 0.0 | 0.00 | 0.00 | 0.00 | 61 | 1007.8 |
| 20260903020042 | 61 | 335 | 0.0 | 0.0 | 0.00 | 0.00 | 0.00 | 57 | 1008.0 |
| 20260903014549 | 62 | 319 | 0.0 | 0.0 | 0.00 | 0.00 | 0.00 | 57 | 1008.2 |
| 20260903013048 | 63 | 340 | 0.0 | 0.0 | 0.00 | 0.00 | 0.00 | 57 | 1007.8 |
| 20260903011544 | 63 | 326 | 0.0 | 0.0 | 0.00 | 0.00 | 0.00 | 58 | 1008.1 |
| 20260903010046 | 65 | 60 | 0.0 | 0.0 | 0.00 | 0.00 | 0.00 | 53 | 1008.1 |
| 20260903004541 | 65 | 143 | 0.0 | 0.0 | 0.00 | 0.00 | 0.00 | 53 | 1007.7 |
| 20260903003041 | 66 | 304 | 0.0 | 0.0 | 0.00 | 0.00 | 0.00 | 44 | 1007.3 |
| 20260903001538 | 66 | 297 | 0.0 | 0.0 | 0.00 | 0.00 | 0.00 | 47 | 1007.2 |
| 20260903000040 | 66 | 303 | 0.0 | 0.0 | 0.00 | 0.00 | 0.00 | 45 | 1006.2 |
| 20260902234555 | 66 | 288 | 0.0 | 0.0 | 0.00 | 0.00 | 0.00 | 45 | 1006.7 |
| 20260902233041 | 65 | 283 | 0.0 | 0.0 | 0.00 | 0.00 | 0.00 | 45 | 1007.4 |
| 20260902231544 | 65 | 266 | 0.0 | 0.0 | 0.00 | 0.00 | 0.00 | 49 | 1007.6 |
| 20260902230037 | 64 | 282 | 0.0 | 34.0 | 0.00 | 0.00 | 0.00 | 50 | 1007.6 |
| 20260902221554 | 77 | 161 | 0.0 | 3.0 | 0.00 | 0.00 | 0.00 | 35 | 1003.5 |
| 20260902220100 | 78 | 202 | 0.0 | 15.0 | 0.00 | 0.00 | 0.00 | 35 | 1003.8 |
| 20260902214550 | 79 | 219 | 3.0 | 9.0 | 0.00 | 0.00 | 0.00 | 38 | 1004.0 |
| 20260902213049 | 80 | 229 | 7.0 | 11.0 | 0.00 | 0.00 | 0.00 | 36 | 1004.0 |